Weather in Gayvoron

Russia / Primorsky Krai     44°44′52″N   132°46′22″E
temp.,
°C
wind,
m/s
gust,
m/s
humid.,
%
clouds,
%
prec.,
mm/h
press.,
hPa
HPBL,
m
18 october, mon
mon1801:00+1wsw363797 0.0 1022308
04:00−1ssw473939 0.0 1022178
07:000s484072 0.0 1021232
10:00+4ssw593580 0.0 1021452
13:00+7wsw3640100 0.1 1020931
16:00+6n546091 0.1 1019479
19:00+2nne5890100 0.0 1021441
22:00+1nne5899100 0.4 1023281
19 october, tue
tue1901:00+1nne3785100 0.1 1024439
04:000nne477898 0.1 1024327
07:00−2nne510643 0.0 1025338
10:00+1nne79430 0.0 1026805
13:00+3n79332 0.0 10241528
16:00+4n673097 0.0 10231637
19:00+1nne484012 0.0 1024388
22:00−1ne47440 0.0 1024272
20 october, wed
wed2001:00−1ne34460 0.0 1023144
04:00−2ne12484 0.0 1022143
07:00−1n235495 0.0 1022190
10:00+4n574671 0.0 1023984
13:00+5nnw674532 0.0 10211252
16:00+7nnw58395 0.0 10201693
19:00+4nnw454758 0.0 1020341
22:00+2ne235512 0.0 1021208
21 october, thu
thu2101:00+1sw12590 0.0 1021224
04:00+2nw34680 0.0 1021121
07:00+2nnw23740 0.0 1021123
10:00+5n24561 0.0 1022529
13:00+7nw45491 0.0 10221023
16:00+7nw35440 0.0 1021789
19:00+4s22555 0.0 102151
22:00+3ssw23575 0.0 1022205
22 october, fri
fri2201:00+4wnw23605 0.0 1022138
04:00+3sw34640 0.0 1022141
07:00+2w23670 0.0 1023137
10:00+6wnw35530 0.0 1024665
13:00+8w44450 0.0 1024808
16:00+9w24410 0.0 1023595
19:00+6ssw34490 0.0 102354
22:00+5sw34570 0.0 102478